Time,TemperatureF,DewpointF,PressureIn,WindDirection,WindDirectionDegrees,WindSpeedMPH,WindSpeedGustMPH,Humidity,HourlyPrecipIn,Conditions,Clouds,dailyrainin,SolarRadiationWatts/m^2,SoftwareType,DateUTC
2013-07-16 11:11:00,76.0,46.0,-100.00,WNW,285,9.0,13.0,35,-99.99,,,0.00,788.000000,,2013-07-16 18:11:00,
2013-07-16 11:22:00,76.0,46.0,-100.00,WNW,285,9.0,13.0,35,-99.99,,,0.00,788.000000,,2013-07-16 18:22:00,
2013-07-16 11:32:00,76.0,46.0,-100.00,WNW,285,9.0,13.0,35,-99.99,,,0.00,788.000000,,2013-07-16 18:32:00,
2013-07-16 11:43:00,76.0,46.0,-100.00,WNW,285,9.0,13.0,35,-99.99,,,0.00,788.000000,,2013-07-16 18:43:00,
2013-07-16 12:11:00,79.0,47.0,-100.00,WNW,287,11.0,18.0,32,0.00,,,0.00,892.000000,,2013-07-16 19:11:00,
2013-07-16 12:22:00,79.0,47.0,-100.00,WNW,287,11.0,18.0,32,0.00,,,0.00,892.000000,,2013-07-16 19:22:00,
2013-07-16 12:32:00,79.0,47.0,-100.00,WNW,287,11.0,18.0,32,0.00,,,0.00,892.000000,,2013-07-16 19:32:00,
2013-07-16 12:43:00,79.0,47.0,-100.00,WNW,287,11.0,18.0,32,0.00,,,0.00,892.000000,,2013-07-16 19:43:00,
2013-07-16 13:43:00,85.0,35.0,-100.00,West,261,12.0,20.0,17,0.00,,,0.00,992.000000,,2013-07-16 20:43:00,
2013-07-16 14:22:00,82.0,36.0,-100.00,WSW,247,15.0,22.0,19,0.00,,,0.00,996.000000,,2013-07-16 21:22:00,
2013-07-16 14:32:00,82.0,36.0,-100.00,WSW,247,15.0,22.0,19,0.00,,,0.00,996.000000,,2013-07-16 21:32:00,
2013-07-16 14:43:00,82.0,36.0,-100.00,WSW,247,15.0,22.0,19,0.00,,,0.00,996.000000,,2013-07-16 21:43:00,
2013-07-16 15:22:00,82.0,33.0,-100.00,WSW,252,14.0,22.0,17,0.00,,,0.00,964.000000,,2013-07-16 22:22:00,
2013-07-16 16:22:00,84.0,37.0,-100.00,West,264,13.0,22.0,19,0.00,,,0.00,858.000000,,2013-07-16 23:22:00,
2013-07-16 16:32:00,84.0,37.0,-100.00,West,264,13.0,22.0,19,0.00,,,0.00,858.000000,,2013-07-16 23:32:00,
2013-07-16 16:42:00,84.0,37.0,-100.00,West,264,13.0,22.0,19,0.00,,,0.00,858.000000,,2013-07-16 23:42:00,
2013-07-16 17:11:00,80.0,42.0,-100.00,WNW,285,14.0,21.0,26,0.00,,,0.00,704.000000,,2013-07-17 00:11:00,
2013-07-16 17:22:00,80.0,42.0,-100.00,WNW,285,14.0,21.0,26,0.00,,,0.00,704.000000,,2013-07-17 00:22:00,
2013-07-16 17:33:00,80.0,42.0,-100.00,WNW,285,14.0,21.0,26,0.00,,,0.00,704.000000,,2013-07-17 00:33:00,
2013-07-16 17:42:00,80.0,42.0,-100.00,WNW,285,14.0,21.0,26,0.00,,,0.00,704.000000,,2013-07-17 00:42:00,
2013-07-16 18:11:00,79.0,40.0,-100.00,WNW,284,11.0,21.0,25,0.00,,,0.00,520.000000,,2013-07-17 01:11:00,
2013-07-16 18:22:00,79.0,40.0,-100.00,WNW,284,11.0,21.0,25,0.00,,,0.00,520.000000,,2013-07-17 01:22:00,
2013-07-16 18:32:00,79.0,40.0,-100.00,WNW,284,11.0,21.0,25,0.00,,,0.00,520.000000,,2013-07-17 01:32:00,
2013-07-16 18:42:00,79.0,40.0,-100.00,WNW,284,11.0,21.0,25,0.00,,,0.00,520.000000,,2013-07-17 01:42:00,
2013-07-16 19:11:00,77.0,42.0,-100.00,West,281,10.0,15.0,29,0.00,,,0.00,318.000000,,2013-07-17 02:11:00,
2013-07-16 19:22:00,77.0,42.0,-100.00,West,281,10.0,15.0,29,0.00,,,0.00,318.000000,,2013-07-17 02:22:00,
2013-07-16 19:32:00,77.0,42.0,-100.00,West,281,10.0,15.0,29,0.00,,,0.00,318.000000,,2013-07-17 02:32:00,
2013-07-16 19:43:00,77.0,42.0,-100.00,West,281,10.0,15.0,29,0.00,,,0.00,318.000000,,2013-07-17 02:43:00,
2013-07-16 20:22:00,70.0,45.0,-100.00,West,274,8.0,14.0,41,0.00,,,0.00,123.000000,,2013-07-17 03:22:00,
2013-07-16 20:32:00,70.0,45.0,-100.00,West,274,8.0,14.0,41,0.00,,,0.00,123.000000,,2013-07-17 03:32:00,
2013-07-16 20:43:00,70.0,45.0,-100.00,West,274,8.0,14.0,41,0.00,,,0.00,123.000000,,2013-07-17 03:43:00,